Location: Newark
(41.9364°N, 2.8061°E)
Time: 17:51:22
(UTC+00:00)

X-37B - Pass Details

Date: 11 August 2021
Orbit: 381 x 393 km, 45.0° (Epoch: 29 August)

Event Time Altitude Azimuth Distance (km) Brightness Sun altitude
Exits shadow 03:27:26 17° 291° (WNW) 1,041 2.4 -14.7°
Maximum altitude 03:29:42 83° 18° (NNE) 388 0.5 -14.3°
Drops below altitude 10° 03:32:50 10° 107° (ESE) 1,393 3.9 -13.9°
Sets 03:34:53 0° 108° (ESE) 2,245 5.0 -13.5°
